This demonstration page uses our WeatherBlox Daily Observations layout. Learn more.

Left ArrowRight Arrow

39.01783, -85.05884

Hourly Observations for October 2, 2019

Temp ( °F °C ) Dew Point ( °F °C ) Humidity (%) Winds ( mph kmh ) Pressure ( in mb ) Visibility ( mi km ) Precip ( " mm )
12:52 am 00:52 Clear 72 22.2 62 16.7 71 71 SSW 6 9 29.95 1014 10 16 0.00 0.00
1:52 am 01:52 Clear 73 22.8 63 17.2 71 71 SSW 7 11 29.94 1014 10 16 0.00 0.00
2:52 am 02:52 Clear 73 22.8 63 17.2 71 71 SSW 6 9 29.94 1014 10 16 0.00 0.00
3:52 am 03:52 Clear 74 23.3 63 17.2 69 69 SW 3 6 29.94 1014 10 16 0.00 0.00
4:52 am 04:52 Clear 70 21.1 63 17.2 79 79 SSW 3 6 29.94 1014 10 16 0.00 0.00
5:52 am 05:52 Mostly Cloudy 68 20 63 17.2 84 84 SSW 6 9 29.94 1014 10 16 0.00 0.00
6:52 am 06:52 Mostly Cloudy 70 21.1 63 17.2 79 79 SSW 7 11 29.95 1014 10 16 0.00 0.00
7:52 am 07:52 Mostly Cloudy 69 20.6 63 17.2 81 81 SSW 5 7 29.97 1015 9 14 0.00 0.00
8:52 am 08:52 Mostly Cloudy 73 22.8 64 17.8 74 74 SSW 7 11 29.98 1015 10 16 0.00 0.00
9:52 am 09:52 Mostly Cloudy 79 26.1 65 18.3 62 62 SSW 9 15 29.99 1016 10 16 0.00 0.00
10:52 am 10:52 Partly Cloudy 82 27.8 65 18.3 56 56 SW 9 15 29.98 1015 10 16 0.00 0.00
11:52 am 11:52 Mostly Sunny 88 31.1 65 18.3 46 46 WSW 12 19 29.97 1015 10 16 0.00 0.00
12:52 pm 12:52 Partly Cloudy 90 32.2 61 16.1 38 38 WSW 15 24 29.95 1014 10 16 0.00 0.00
1:52 pm 13:52 Mostly Sunny 92 33.3 60 15.6 34 34 W 21 33 29.93 1014 10 16 0.00 0.00
2:52 pm 14:52 Mostly Sunny 93 33.9 60 15.6 33 33 WSW 16 26 29.90 1013 10 16 0.00 0.00
3:52 pm 15:52 Mostly Sunny 94 34.4 59 15 31 31 W 14 22 29.89 1012 10 16 0.00 0.00
4:52 pm 16:52 Mostly Sunny 94 34.4 58 14.4 30 30 W 14 22 29.88 1012 10 16 0.00 0.00
5:52 pm 17:52 Mostly Sunny 92 33.3 57 13.9 31 31 W 16 26 29.88 1012 10 16 0.00 0.00
6:52 pm 18:52 Mostly Sunny 88 31.1 59 15 38 38 W 9 15 29.90 1013 10 16 0.00 0.00
7:52 pm 19:52 Clear 83 28.3 60 15.6 46 46 W 6 9 29.91 1013 10 16 0.00 0.00
8:52 pm 20:52 Clear 81 27.2 61 16.1 51 51 WSW 5 7 29.93 1013 10 16 0.00 0.00
9:52 pm 21:52 Clear 80 26.7 62 16.7 54 54 SW 7 11 29.92 1013 10 16 0.00 0.00
10:52 pm 22:52 Clear 79 26.1 62 16.7 56 56 SW 5 7 29.92 1013 10 16 0.00 0.00
11:52 pm 23:52 Clear 76 24.4 62 16.7 62 62 SSW 3 6 29.91 1013 10 16 0.00 0.00

Powered by AerisWeather